FLOCK 4S-38 (47512 NORAD) Tracking and Keplerian Element Data

This shows tracking and keplerian element data for the satellite.

Feedback or suggestion? Click here.




ElementValue
Catalog47512
NameFLOCK 4S-38
Epoch Orbit1261
Epoch Day106.07265225
Epoch Year2021
RAAN168.3764
Inclination97.5019
Eccentricity0.0007737
Argument of Perigee335.217
Mean Anonmoly24.8688
Mean Motion15.12059116
Decay Rate1.628E-05
L11 47512U 21006DD 21106.07265225 .00001628 00000-0 98384-4 0 9990
L22 47512 97.5019 168.3764 0007737 335.2170 24.8688 15.12059116 12619

Live tracking and technical data element details for FLOCK 4S-38 (NORAD 47512). FLOCK 4S-38 can be tracked NOW for your location showing map with azimuth and elevation plus other details from your city location.

Track the satellite on the map from your city or location and see movement details for azimuth, elevation, latitude, longitude, range, height, and movement on the map or in text.







IsCatalogInMostPopularTable: catalog: 47512, numindb: 17
Update: records affected: 1



GetName: 47512 FLOCK 4S-38

Hit Count: updated at: Fri, 16 Apr 2021 11:03:26 GMT